KPSPKSAN

Guest
Details From KPSP - Palm Springs Intl
To KSAN - San Diego Intl
Flight Number -
Tags decoded
Created
Modified
Stats Distance 74 nm / 137 km
Max Altitude 0 ft / 0 m
Waypoints 2
Social Downloads 0
Likes 0
Share VATSIM

Download

Looking for another format? Having issues loading an existing format? Contact us
Advertisement - Login to hide

Notes

Requested: KPSP CUCCA KSAN Unmatched points: CUCCA

Route

KPSP KSAN

ID Type Via Altitude Latitude Longitude Leg Dist Tot Dist Heading (true) Name
O KPSP APT - 0 ft / 0 m 33.82968˚ -116.50622˚ - 0 nm - Palm Springs Intl
O KSAN APT - 0 ft / 0 m 32.73356˚ -117.18966˚ 74 nm 74 nm 208° / 207° San Diego Intl

Altitude Profile

Advertisement - Login to hide

KPSP

Details ICAO KPSP (PSP)
Name Palm Springs Intl
Region United States
Timezone America/Los_Angeles (UTC-7.0)
Stats Elevation 477 ft / 145 m (AMSL)
Location 33.829677° -116.506218°
Runways 2
Magnetic Variation 11.541° E

METAR

KPSP 251253Z VRB03KT 10SM CLR 19/08 A2993 RMK AO2 SLP132 T01890078

Decode

TAF

TAF KPSP 251120Z 2512/2612 VRB05KT P6SM SKC FM251700 31012G22KT P6SM SKC FM252100 32020G30KT P6SM SKC FM260800 32012G20KT P6SM SKC

Decode

Departure Runways

ID Width Length Bearing (true) Bearing (mag) Surface Threshold Offset Overrun Length
13L 75 ft / 23 m 4,958 ft / 1,511 m 143.52° 131.98° Asphalt 0 ft / 0 m 151 ft / 46 m
13R 151 ft / 46 m 10,012 ft / 3,052 m 143.52° 131.98° Asphalt 2,999 ft / 914 m 200 ft / 61 m
31L 151 ft / 46 m 10,012 ft / 3,052 m 323.53° 311.99° Asphalt 1,499 ft / 457 m 200 ft / 61 m
31R 75 ft / 23 m 4,958 ft / 1,511 m 323.53° 311.99° Asphalt 0 ft / 0 m 151 ft / 46 m

KSAN

Details ICAO KSAN (SAN)
Name San Diego Intl
Region United States
Timezone America/Los_Angeles (UTC-7.0)
Stats Elevation 17 ft / 5 m (AMSL)
Location 32.733556° -117.189658°
Runways 1
Magnetic Variation 11.487° E

METAR

KSAN 251251Z 30006KT 10SM FEW012 BKN017 BKN043 16/12 A3010 RMK AO2 SLP194 T01610122

Decode

TAF

TAF KSAN 251120Z 2512/2618 VRB04KT P6SM SCT025 OVC040 FM251900 29011G18KT P6SM SCT040 FM260400 30007KT P6SM BKN035 FM260600 VRB04KT P6SM SCT025 BKN035

Decode

Destination Runways

ID Width Length Bearing (true) Bearing (mag) Surface Threshold Offset Overrun Length
09 200 ft / 61 m 9,387 ft / 2,861 m 106.07° 94.58° Asphalt 699 ft / 213 m 269 ft / 82 m
27 200 ft / 61 m 9,387 ft / 2,861 m 286.08° 274.59° Asphalt 1,811 ft / 552 m 0 ft / 0 m

Approach Navaids

Runway Type Ident Frequency Range Bearing (true) Bearing (mag) Slope Elevation
09 Localiser ISAN 111.55 MHz 18 nm / 33 km 106.08° 94.59° - 17 ft / 5 m (AMSL)
09 Glidescope ISAN 111.55 MHz 10 nm / 19 km 106.08° 94.59° 3.22° 13 ft / 4 m (AMSL)
09 DME ISAN 111.55 MHz 18 nm / 33 km - - - 29 ft / 9 m (AMSL)
27 Localiser IUBR 110.90 MHz 18 nm / 33 km 286.07° 274.58° - 13 ft / 4 m (AMSL)
27 DME IUBR 110.90 MHz 18 nm / 33 km - - - 26 ft / 8 m (AMSL)

Popular Alternatives